This is the latest recevied weather packets stored in our database for station/object 9W2CHF-4. If no packets are shown the sender has not sent any weather packets the latest 10 day(s).
| Time | Temp. | Humidity | Pressure | Rain* | Wind** | Luminosity | Snow |
|---|---|---|---|---|---|---|---|
| 1778052221 | 32.22° C | 86% | 1007.6 hPa | - | - | - | - |
| 1778051321 | 32.22° C | 84% | 1007.8 hPa | - | - | - | - |
| 1778050421 | 32.22° C | 86% | 1007.9 hPa | - | - | - | - |
| 1778049520 | 32.22° C | 86% | 1008.2 hPa | - | - | - | - |
| 1778048620 | 32.22° C | 87% | 1008.4 hPa | - | - | - | - |
| 1778047720 | 32.22° C | 87% | 1008.6 hPa | - | - | - | - |
| 1778046820 | 32.22° C | 85% | 1008.8 hPa | - | - | - | - |
| 1778045920 | 32.78° C | 81% | 1009 hPa | - | - | - | - |
| 1778045020 | 32.22° C | 76% | 1009.3 hPa | - | - | - | - |
| 1778044118 | 32.22° C | 73% | 1009.4 hPa | - | - | - | - |
| 1778043218 | 32.22° C | 66% | 1009.4 hPa | - | - | - | - |
| 1778042318 | 32.22° C | 68% | 1009.7 hPa | - | - | - | - |
| 1778041418 | 32.78° C | 64% | 1009.9 hPa | - | - | - | - |
| 1778040519 | 31.67° C | 67% | 1010.1 hPa | - | - | - | - |
| 1778039618 | 32.22° C | 71% | 1010 hPa | - | - | - | - |
| 1778038718 | 31.67° C | 59% | 1010.3 hPa | - | - | - | - |
| 1778037818 | 31.67° C | 61% | 1010.4 hPa | - | - | - | - |
| 1778036918 | 32.22° C | 64% | 1010.3 hPa | - | - | - | - |
| 1778036017 | 32.22° C | 67% | 1010.3 hPa | - | - | - | - |
| 1778035117 | 32.78° C | 79% | 1010.4 hPa | - | - | - | - |
| 1778034217 | 32.78° C | 84% | 1010.4 hPa | - | - | - | - |
| 1778033316 | 32.22° C | 86% | 1010.4 hPa | - | - | - | - |
| 1778032416 | 32.22° C | 86% | 1010.4 hPa | - | - | - | - |
| 1778031516 | 32.22° C | 85% | 1010.5 hPa | - | - | - | - |
| 1778030616 | 32.22° C | 86% | 1010.3 hPa | - | - | - | - |
* Rain since midnight (hover to see other rain measurements)
** Current wind speed in m/s (hover to see current wind gust speed)